Location: Newark
(39.2833°N, 16.3333°E)
Time: 12:04:26
(UTC+00:00)

Envisat - Pass Details

Date: 23 October 2019
Orbit: 764 x 766 km, 98.1° (Epoch: 20 November)

Event Time Altitude Azimuth Distance (km) Brightness Sun altitude
Rises 17:15:39 0° 175° (S) 3,217 6.2 -14.3°
Reaches altitude 10° 17:17:58 10° 179° (S) 2,295 5.5 -14.7°
Maximum altitude 17:22:58 61° 259° (W) 867 3.6 -15.7°
Drops below altitude 10° 17:28:00 10° 340° (NNW) 2,310 5.7 -16.7°
Sets 17:30:21 0° 344° (NNW) 3,241 6.4 -17.1°
